Home   Weather   Cleveland   Past weeks

Flag for USA Past Weather in Cleveland, Tennessee, USA — Yesterday and Last 2 Weeks

Now
71 °F

Passing clouds.


Feels Like: 67 °F
Forecast: 69 / 83 °F
Wind: 3 mph from Northwest

Location: Lovell Field

Current Time: Apr 29, 2017 at 11:33:04 pm

Latest Report: Apr 29, 2017 at 10:53 pm


Visibility: 8 mi

Pressure: 30.04 "Hg

Humidity: 93%

Dew Point: 69 °F

Location of ClevelandLocation

Past Weather in Cleveland — Graph

°F

Cleveland Temperature Yesterday

Maximum temperature yesterday: 84 °F (at 5:53 pm)
Minimum temperature yesterday: 55 °F (at 5:53 am)
Average temperature yesterday: 68 °F

High & Low Weather Summary for the Past Weeks

 TemperatureHumidityPressure
High89 °F (Apr 29, 3:53 pm)100% (Apr 18, 7:16 am)30.32 "Hg (Apr 18, 7:16 am)
Low54 °F (Apr 25, 6:53 am)28% (Apr 15, 4:53 pm)29.67 "Hg (Apr 27, 4:53 am)
Average68 °F77%29.96 "Hg
* Reported Apr 14 10:53 pm — Apr 29 10:17 pm, Cleveland, Weather by CustomWeather, © 2017

Note: Actual official high and low records may vary slightly from our data, if they occured in-between our weather recording intervals... More about our weather records

Advertising

Cleveland Weather History for the Previous 24 Hours

Scroll right to see more
 ConditionsComfort  
Time TempWeatherWind HumidityBarometerVisibility
10:17 pm
Sat, Apr 29
72 °FPartly cloudy.No wind93%30.06 "Hg8 mi
10:03 pm72 °FThundershowers. Partly cloudy.5 mph93%30.05 "Hg8 mi
9:41 pm73 °FThunderstorms. Fog.No wind90%30.05 "Hg5 mi
9:28 pm73 °FThunderstorms. Fog.3 mph94%30.06 "Hg2 mi
8:53 pm74 °FPassing clouds.6 mph91%30.01 "Hg8 mi
7:53 pm74 °FBroken clouds.3 mph88%30.01 "Hg10 mi
7:13 pm74 °FThunderstorms. Fog.6 mph88%30.02 "Hg3 mi
7:04 pm76 °FThunderstorms. Fog.7 mph77%30.01 "Hg1 mi
6:35 pm82 °FBroken clouds.16 mph56%30.02 "Hg10 mi
6:12 pm85 °FThundershowers. Broken clouds.8 mph53%30.01 "Hg10 mi
5:53 pm86 °FBroken clouds.7 mph48%29.97 "Hg10 mi
4:53 pm89 °FBroken clouds.8 mph43%30.00 "Hg10 mi
3:53 pm89 °FBroken clouds.10 mph45%30.02 "Hg10 mi
2:53 pm87 °FBroken clouds.15 mph50%30.03 "Hg10 mi
1:53 pm87 °FBroken clouds.13 mph50%30.05 "Hg10 mi
12:53 pm86 °FBroken clouds.14 mph51%30.07 "Hg10 mi
11:53 am82 °FBroken clouds.7 mph58%30.08 "Hg10 mi
10:53 am80 °FBroken clouds.14 mph64%30.09 "Hg10 mi
9:53 am77 °FBroken clouds.8 mph71%30.08 "Hg7 mi
8:53 am73 °FScattered clouds.No wind81%30.08 "Hg7 mi
7:53 am68 °FScattered clouds.No wind90%30.08 "Hg7 mi
6:53 am66 °FFog.No wind93%30.06 "Hg4 mi
5:53 am65 °FFog.3 mph94%30.03 "Hg6 mi
4:53 am68 °FPassing clouds.No wind90%30.02 "Hg9 mi
3:53 am66 °FClear.No wind93%30.00 "Hg9 mi
2:53 am69 °FClear.No wind87%29.98 "Hg10 mi
1:53 am69 °FClear.No wind87%30.01 "Hg10 mi
12:53 am70 °FClear.No wind87%30.03 "Hg10 mi
11:53 pm
Fri, Apr 28
74 °FPartly cloudy.No wind76%30.03 "Hg10 mi
Weather by CustomWeather, © 2017

See weather overviewHow to use our weather pages